This is the latest recevied weather packets stored in our database for station/object K5UTC. If no packets are shown the sender has not sent any weather packets the latest 10 day(s).
| Time | Temp. | Humidity | Pressure | Rain* | Wind** | Luminosity | Snow |
|---|---|---|---|---|---|---|---|
| 1778288098 | 16.67° C | 76% | 1011.2 hPa | 0 mm | - | 0 W/m² | - |
| 1778287797 | 17.22° C | 75% | 1011.2 hPa | 0 mm | - | 0 W/m² | - |
| 1778287495 | 17.78° C | 75% | 1011.3 hPa | 0 mm | - | 1 W/m² | - |
| 1778287192 | 17.78° C | 74% | 1011.5 hPa | 0 mm | - | 3 W/m² | - |
| 1778286890 | 17.78° C | 74% | 1011.5 hPa | 0 mm | - | 5 W/m² | - |
| 1778286587 | 17.78° C | 76% | 1011.6 hPa | 0 mm | - | 7 W/m² | - |
| 1778286285 | 17.78° C | 76% | 1011.4 hPa | 0 mm | - | 10 W/m² | - |
| 1778285982 | 17.78° C | 77% | 1011.4 hPa | 0 mm | - | 14 W/m² | - |
| 1778285678 | 18.33° C | 76% | 1011.6 hPa | 0 mm | - | 17 W/m² | - |
| 1778285375 | 18.33° C | 73% | 1011.3 hPa | 0 mm | - | 19 W/m² | - |
| 1778285073 | 18.33° C | 72% | 1011.5 hPa | 0 mm | - | 20 W/m² | - |
| 1778284768 | 18.89° C | 72% | 1011.5 hPa | 0 mm | - | 25 W/m² | - |
| 1778284467 | 18.89° C | 67% | 1011.4 hPa | 0 mm | - | 22 W/m² | - |
| 1778284163 | 19.44° C | 66% | 1011.6 hPa | 0 mm | - | 31 W/m² | - |
| 1778283860 | 19.44° C | 64% | 1011.5 hPa | 0 mm | - | 35 W/m² | - |
| 1778283558 | 20° C | 64% | 1011.4 hPa | 0 mm | - | 38 W/m² | - |
| 1778283257 | 20° C | 61% | 1011.4 hPa | 0 mm | - | 40 W/m² | - |
| 1778282953 | 20.56° C | 60% | 1011.6 hPa | 0 mm | - | 49 W/m² | - |
| 1778282650 | 20.56° C | 57% | 1011.3 hPa | 0 mm | - | 56 W/m² | - |
| 1778282348 | 20.56° C | 56% | 1011.5 hPa | 0 mm | - | 44 W/m² | - |
| 1778282045 | 21.11° C | 56% | 1011.6 hPa | 0 mm | - | 46 W/m² | - |
| 1778281741 | 21.11° C | 56% | 1011.5 hPa | 0 mm | - | 47 W/m² | - |
| 1778281438 | 21.67° C | 55% | 1011.5 hPa | 0 mm | - | 56 W/m² | - |
| 1778281136 | 21.67° C | 55% | 1011.7 hPa | 0 mm | - | 70 W/m² | - |
| 1778280831 | 21.67° C | 54% | 1011.7 hPa | 0 mm | - | 50 W/m² | - |
* Rain latest hour (hover to see other rain measurements)
** Current wind speed in m/s (hover to see current wind gust speed)